BOC961 OMAA-EGNX

Flight info

Callsign BOC961
Flight time N/A
Altitude 27000
Route KANIP2U KANIP N318 LAKLU/N0501F280 Q204 NALKI G652 TOKRA DCT MEDPO DCT BOSOB DCT ITRUX Y511 PMA Z712 WEJ/N0501F300 L677 CVO L617 NOZ L551 ANTAR UN133 KPC DCT FSK DCT DISOR DCT LONTA UL608 DOLEV DCT GORPA/N0486F320 DCT GIMIX DCT UMVEG DCT KPT L856 RAVED Y112 HOC DCT LUL DCT RLP DCT ROTSI DCT KOTUN DCT NINAL DCT ABNUR DCT DIMAL DCT ALESO T420 HEMEL HEMEL1E
Aircraft B77L/H-SDE1E2E3FGHIJ2J3J4J5M1RWXY/LB1D1

Departure

Time N/A
Airport Zayed International Airport (OMAA)

Arrival

Time 2026-04-30 20:41
Airport East Midlands Airport (EGNX)
Time Latitude Longitude Altitude Speed Heading
2026-04-30 17:39 39.79816 24.01285 34049 ft 454 kts 325°
2026-04-30 17:42 40.06955 23.80348 34068 ft 454 kts 324°
2026-04-30 17:43 40.20554 23.69785 34085 ft 454 kts 324°
2026-04-30 17:44 40.36788 23.57107 34100 ft 452 kts 324°
2026-04-30 17:47 40.60961 23.38098 34121 ft 448 kts 323°
2026-04-30 17:48 40.79560 23.23358 34135 ft 445 kts 323°
2026-04-30 17:50 41.00711 23.06476 34141 ft 443 kts 322°
2026-04-30 17:52 41.14799 22.91523 34163 ft 427 kts 305°
2026-04-30 17:54 41.32310 22.64606 34174 ft 429 kts 307°
2026-04-30 17:56 41.48292 22.41198 34207 ft 425 kts 307°
2026-04-30 17:58 41.60155 22.23636 34221 ft 423 kts 306°
2026-04-30 18:00 41.75785 22.00346 34257 ft 419 kts 306°
2026-04-30 18:01 41.85496 21.85781 34261 ft 419 kts 306°
2026-04-30 18:02 41.97122 21.68248 34257 ft 420 kts 306°
2026-04-30 18:04 42.08750 21.50603 34275 ft 421 kts 306°
2026-04-30 18:06 42.24194 21.26596 34261 ft 426 kts 305°
2026-04-30 18:08 42.37649 21.05150 34242 ft 429 kts 305°
2026-04-30 18:09 42.45431 20.92675 34275 ft 442 kts 305°
2026-04-30 18:10 42.53394 20.79877 34268 ft 445 kts 306°
2026-04-30 18:11 42.67236 20.57480 34260 ft 441 kts 306°
2026-04-30 18:13 42.77038 20.41516 34253 ft 439 kts 306°
2026-04-30 18:14 42.86864 20.25622 34257 ft 441 kts 307°
2026-04-30 18:15 42.99061 20.06737 34246 ft 444 kts 308°
2026-04-30 18:16 43.07202 19.93990 34239 ft 447 kts 308°
2026-04-30 18:17 43.11289 19.87568 34247 ft 448 kts 308°
2026-04-30 18:18 43.17427 19.77893 34246 ft 448 kts 308°
2026-04-30 18:18 43.21520 19.71431 34268 ft 448 kts 308°
2026-04-30 18:19 43.25608 19.64958 34258 ft 449 kts 308°
2026-04-30 18:19 43.29665 19.58516 34262 ft 449 kts 309°
2026-04-30 18:20 43.33755 19.52005 34254 ft 450 kts 308°
2026-04-30 18:20 43.37848 19.45484 34259 ft 450 kts 308°
2026-04-30 18:21 43.41940 19.38946 34261 ft 451 kts 308°
2026-04-30 18:21 43.46029 19.32397 34271 ft 451 kts 308°
2026-04-30 18:22 43.50126 19.25821 34264 ft 452 kts 308°
2026-04-30 18:22 43.56233 19.15994 34260 ft 451 kts 308°
2026-04-30 18:23 43.60309 19.09416 34250 ft 451 kts 308°
2026-04-30 18:23 43.64377 19.02835 34252 ft 450 kts 308°
2026-04-30 18:24 43.70480 18.92929 34259 ft 451 kts 308°
2026-04-30 18:25 43.74546 18.86312 34270 ft 452 kts 308°
2026-04-30 18:25 43.79977 18.77449 34272 ft 454 kts 308°
2026-04-30 18:26 43.86123 18.67393 34284 ft 456 kts 309°
2026-04-30 18:27 43.92231 18.57355 34291 ft 457 kts 309°
2026-04-30 18:28 43.98386 18.47203 34293 ft 458 kts 309°
2026-04-30 18:28 44.04535 18.37034 34296 ft 459 kts 309°
2026-04-30 18:29 44.12771 18.23355 34295 ft 461 kts 309°
2026-04-30 18:30 44.20984 18.09645 34297 ft 462 kts 309°
2026-04-30 18:31 44.27164 17.99287 34292 ft 462 kts 309°
2026-04-30 18:32 44.33296 17.88972 34293 ft 461 kts 309°
2026-04-30 18:33 44.39438 17.78604 34309 ft 461 kts 309°
2026-04-30 18:33 44.45545 17.68252 34315 ft 460 kts 309°
2026-04-30 18:34 44.51659 17.57857 34326 ft 461 kts 309°
2026-04-30 18:35 44.55739 17.50899 34331 ft 461 kts 309°
2026-04-30 18:35 44.59809 17.43935 34332 ft 461 kts 309°
2026-04-30 18:36 44.65913 17.33467 34339 ft 462 kts 309°
2026-04-30 18:37 44.71986 17.23011 34341 ft 462 kts 309°
2026-04-30 18:37 44.76052 17.15991 34341 ft 463 kts 309°
2026-04-30 18:38 44.80118 17.08952 34348 ft 463 kts 309°
2026-04-30 18:38 44.84178 17.01905 34351 ft 463 kts 309°
2026-04-30 18:39 44.88216 16.94883 34343 ft 463 kts 309°
2026-04-30 18:39 44.92274 16.87805 34339 ft 463 kts 309°
2026-04-30 18:40 44.96323 16.80726 34340 ft 463 kts 309°
2026-04-30 18:40 45.00351 16.73668 34346 ft 463 kts 309°
2026-04-30 18:41 45.04397 16.66555 34349 ft 463 kts 309°
2026-04-30 18:41 45.08436 16.59441 34350 ft 464 kts 309°
2026-04-30 18:42 45.12482 16.52299 34353 ft 465 kts 309°
2026-04-30 18:42 45.18550 16.41552 34348 ft 465 kts 309°
2026-04-30 18:45 45.40747 16.01874 34366 ft 468 kts 310°
2026-04-30 18:46 45.44790 15.94589 34370 ft 469 kts 310°
2026-04-30 18:46 45.48840 15.87273 34363 ft 470 kts 310°
2026-04-30 18:47 45.52883 15.79948 34368 ft 470 kts 310°
2026-04-30 18:47 45.56926 15.72606 34369 ft 470 kts 310°
2026-04-30 18:48 45.60965 15.65249 34369 ft 470 kts 310°
2026-04-30 18:48 45.64973 15.57929 34370 ft 470 kts 310°
2026-04-30 18:49 45.69004 15.50551 34364 ft 470 kts 310°
2026-04-30 18:49 45.73022 15.43177 34369 ft 469 kts 310°
2026-04-30 18:50 45.77032 15.35793 34361 ft 469 kts 309°
2026-04-30 18:50 45.80735 15.28152 34374 ft 469 kts 306°
2026-04-30 18:51 45.84357 15.20356 34363 ft 470 kts 306°
2026-04-30 18:51 45.87986 15.12544 34369 ft 469 kts 306°
2026-04-30 18:52 45.91618 15.04745 34359 ft 469 kts 306°
2026-04-30 18:52 45.95221 14.97007 34356 ft 469 kts 306°
2026-04-30 18:53 45.98842 14.89201 34357 ft 468 kts 306°
2026-04-30 18:53 46.02456 14.81392 34354 ft 468 kts 307°
2026-04-30 18:54 46.06049 14.73608 34355 ft 470 kts 307°
2026-04-30 18:54 46.09691 14.65699 34355 ft 474 kts 307°
2026-04-30 18:55 46.13340 14.57749 34351 ft 475 kts 307°
2026-04-30 18:55 46.18788 14.45831 34349 ft 477 kts 307°
2026-04-30 18:56 46.24256 14.33821 34353 ft 477 kts 307°
2026-04-30 18:57 46.29686 14.21843 34338 ft 475 kts 307°
2026-04-30 18:57 46.33299 14.13845 34341 ft 474 kts 307°
2026-04-30 18:58 46.38704 14.01840 34335 ft 473 kts 307°
2026-04-30 18:59 46.44072 13.89862 34323 ft 473 kts 307°
2026-04-30 19:00 46.51203 13.73873 34321 ft 472 kts 307°
2026-04-30 19:01 46.57850 13.57318 34333 ft 475 kts 304°
2026-04-30 19:02 46.62720 13.44705 34295 ft 476 kts 304°
2026-04-30 19:03 46.69201 13.27947 34278 ft 476 kts 305°
2026-04-30 19:04 46.75686 13.11105 34277 ft 477 kts 305°
2026-04-30 19:05 46.82160 12.94168 34302 ft 478 kts 305°
2026-04-30 19:06 46.88622 12.77144 34275 ft 481 kts 305°
2026-04-30 19:06 46.93474 12.64305 34267 ft 479 kts 305°
2026-04-30 19:07 46.98270 12.51546 34294 ft 478 kts 305°
2026-04-30 19:08 47.04662 12.34453 34297 ft 477 kts 305°
2026-04-30 19:09 47.09428 12.21640 34324 ft 480 kts 305°
2026-04-30 19:09 47.12622 12.13010 34295 ft 482 kts 305°
2026-04-30 19:10 47.19014 11.95663 34298 ft 483 kts 305°
2026-04-30 19:11 47.23239 11.84047 34292 ft 483 kts 305°
2026-04-30 19:12 47.26334 11.75279 34312 ft 482 kts 304°
2026-04-30 19:12 47.29912 11.65089 34291 ft 481 kts 304°
2026-04-30 19:13 47.35556 11.49010 34315 ft 481 kts 304°
2026-04-30 19:14 47.38609 11.40279 34279 ft 482 kts 304°
2026-04-30 19:14 47.41676 11.31475 34291 ft 482 kts 304°
2026-04-30 19:15 47.44739 11.22640 34290 ft 483 kts 304°
2026-04-30 19:15 47.49327 11.09371 34304 ft 483 kts 304°
2026-04-30 19:16 47.52380 11.00509 34317 ft 484 kts 304°
2026-04-30 19:17 47.56953 10.87154 34325 ft 484 kts 304°
2026-04-30 19:17 47.61505 10.73797 34314 ft 486 kts 304°
2026-04-30 19:18 47.66058 10.60380 34300 ft 486 kts 303°
2026-04-30 19:19 47.69092 10.51396 34313 ft 487 kts 303°
2026-04-30 19:19 47.73413 10.37680 34318 ft 497 kts 294°
2026-04-30 19:20 47.74566 10.27400 34317 ft 514 kts 276°
2026-04-30 19:21 47.74072 10.11408 34318 ft 520 kts 272°
2026-04-30 19:22 47.73522 9.89887 34301 ft 521 kts 273°
2026-04-30 19:23 47.71887 9.57710 34269 ft 523 kts 264°
2026-04-30 19:24 47.69847 9.41892 34269 ft 520 kts 264°
2026-04-30 19:25 47.66548 9.15668 34268 ft 513 kts 264°
2026-04-30 19:26 47.63922 8.94974 34253 ft 510 kts 263°
2026-04-30 19:27 47.61931 8.79518 34255 ft 507 kts 263°
2026-04-30 19:28 47.59925 8.64114 34271 ft 506 kts 263°
2026-04-30 19:29 47.57232 8.43682 34268 ft 507 kts 262°
2026-04-30 19:30 47.54479 8.23116 34261 ft 509 kts 262°
2026-04-30 19:31 47.51701 8.02639 34257 ft 510 kts 262°
2026-04-30 19:31 47.49581 7.87222 34238 ft 510 kts 261°
2026-04-30 19:32 47.48163 7.76972 34230 ft 508 kts 261°
2026-04-30 19:32 47.47382 7.66691 34235 ft 500 kts 275°
2026-04-30 19:33 47.48215 7.56593 34236 ft 492 kts 287°
2026-04-30 19:33 47.49906 7.46803 34242 ft 491 kts 288°
2026-04-30 19:34 47.51588 7.37018 34238 ft 491 kts 287°
2026-04-30 19:35 47.54035 7.22279 34230 ft 492 kts 287°
2026-04-30 19:35 47.55642 7.12413 34224 ft 493 kts 287°
2026-04-30 19:36 47.57245 7.02529 34199 ft 494 kts 286°
2026-04-30 19:36 47.59643 6.87658 34196 ft 495 kts 286°
2026-04-30 19:37 47.61234 6.77717 34195 ft 496 kts 286°
2026-04-30 19:37 47.62817 6.67767 34196 ft 496 kts 285°
2026-04-30 19:38 47.64394 6.57795 34192 ft 497 kts 285°
2026-04-30 19:38 47.65964 6.47806 34202 ft 497 kts 285°
2026-04-30 19:39 47.67528 6.37799 34214 ft 498 kts 285°
2026-04-30 19:39 47.69128 6.27867 34214 ft 498 kts 288°
2026-04-30 19:40 47.71211 6.18004 34216 ft 498 kts 290°
2026-04-30 19:40 47.73318 6.08270 34217 ft 499 kts 290°
2026-04-30 19:41 47.75413 5.98427 34218 ft 500 kts 289°
2026-04-30 19:41 47.77488 5.88546 34198 ft 501 kts 289°
2026-04-30 19:42 47.79552 5.78650 34219 ft 501 kts 289°
2026-04-30 19:42 47.81610 5.68742 34214 ft 501 kts 289°
2026-04-30 19:43 47.83660 5.58841 34202 ft 500 kts 289°
2026-04-30 19:44 47.86708 5.43996 34201 ft 500 kts 288°
2026-04-30 19:44 47.88731 5.34101 34222 ft 500 kts 288°
2026-04-30 19:45 47.91457 5.24648 34200 ft 495 kts 303°
2026-04-30 19:45 47.95544 5.16467 34190 ft 491 kts 315°
2026-04-30 19:46 48.00182 5.08994 34186 ft 491 kts 315°
2026-04-30 19:46 48.04819 5.01476 34190 ft 493 kts 314°
2026-04-30 19:47 48.09433 4.93863 34202 ft 495 kts 314°
2026-04-30 19:47 48.14058 4.86183 34197 ft 498 kts 314°
2026-04-30 19:48 48.18669 4.78502 34185 ft 499 kts 314°
2026-04-30 19:48 48.23316 4.70743 34184 ft 501 kts 313°
2026-04-30 19:49 48.27974 4.62946 34186 ft 502 kts 313°
2026-04-30 19:49 48.34944 4.51196 34189 ft 503 kts 313°
2026-04-30 19:50 48.39586 4.43335 34183 ft 502 kts 313°
2026-04-30 19:50 48.44219 4.35469 34184 ft 502 kts 313°
2026-04-30 19:51 48.48843 4.27592 34185 ft 502 kts 313°
2026-04-30 19:51 48.53457 4.19708 34183 ft 501 kts 313°
2026-04-30 19:52 48.58059 4.11822 34185 ft 500 kts 313°
2026-04-30 19:52 48.62652 4.03934 34193 ft 500 kts 313°
2026-04-30 19:53 48.67240 3.96024 34196 ft 500 kts 312°
2026-04-30 19:53 48.71828 3.88100 34212 ft 501 kts 313°
2026-04-30 19:54 48.76693 3.80568 34196 ft 501 kts 317°
2026-04-30 19:54 48.81698 3.73211 34200 ft 501 kts 317°
2026-04-30 19:55 48.86700 3.65829 34203 ft 502 kts 317°
2026-04-30 19:55 48.91684 3.58391 34202 ft 502 kts 316°
2026-04-30 19:56 48.96654 3.50926 34197 ft 503 kts 316°
2026-04-30 19:56 49.01592 3.43495 34194 ft 502 kts 316°
2026-04-30 19:57 49.06555 3.35998 34217 ft 502 kts 316°
2026-04-30 19:57 49.11515 3.28493 34196 ft 502 kts 316°
2026-04-30 19:58 49.16472 3.20968 34204 ft 502 kts 316°
2026-04-30 19:58 49.21421 3.13429 34208 ft 502 kts 316°
2026-04-30 19:59 49.26371 3.05867 34201 ft 503 kts 316°
2026-04-30 20:00 49.33779 2.94509 34203 ft 502 kts 316°
2026-04-30 20:00 49.38714 2.86913 34202 ft 502 kts 316°
2026-04-30 20:01 49.45273 2.76780 34201 ft 503 kts 316°
2026-04-30 20:01 49.50204 2.69138 34197 ft 503 kts 316°
2026-04-30 20:02 49.57589 2.57649 34194 ft 504 kts 315°
2026-04-30 20:03 49.65507 2.47037 34200 ft 503 kts 324°
2026-04-30 20:03 49.71121 2.40575 34193 ft 504 kts 324°
2026-04-30 20:04 49.76730 2.34046 34197 ft 505 kts 324°
2026-04-30 20:05 49.85113 2.24141 34197 ft 506 kts 324°
2026-04-30 20:05 49.93494 2.14180 34199 ft 506 kts 324°
2026-04-30 20:06 49.99083 2.07515 34190 ft 507 kts 324°
2026-04-30 20:06 50.04675 2.00831 34195 ft 507 kts 324°
2026-04-30 20:07 50.10260 1.94133 34180 ft 507 kts 323°
2026-04-30 20:08 50.18540 1.83884 34189 ft 507 kts 318°
2026-04-30 20:08 50.23584 1.76192 34210 ft 507 kts 316°
2026-04-30 20:09 50.28591 1.68445 34213 ft 506 kts 316°
2026-04-30 20:09 50.36132 1.56875 34203 ft 506 kts 316°
2026-04-30 20:10 50.43674 1.45292 34220 ft 506 kts 316°
2026-04-30 20:11 50.51141 1.33667 34208 ft 506 kts 314°
2026-04-30 20:11 50.55873 1.25476 34218 ft 506 kts 312°
2026-04-30 20:12 50.63187 1.13489 34221 ft 506 kts 316°
2026-04-30 20:13 50.68201 1.05697 34219 ft 506 kts 315°
2026-04-30 20:13 50.73177 0.97839 34208 ft 506 kts 315°
2026-04-30 20:14 50.78131 0.89930 34221 ft 506 kts 315°
2026-04-30 20:14 50.83079 0.82005 34215 ft 506 kts 315°
2026-04-30 20:15 50.88033 0.74071 34215 ft 507 kts 315°
2026-04-30 20:15 50.93006 0.66139 34213 ft 507 kts 315°
2026-04-30 20:16 50.97970 0.58185 34223 ft 508 kts 314°
2026-04-30 20:16 51.02895 0.50139 34197 ft 508 kts 314°
2026-04-30 20:17 51.07818 0.42090 34200 ft 508 kts 315°
2026-04-30 20:17 51.12916 0.34297 34222 ft 508 kts 317°
2026-04-30 20:18 51.18060 0.26585 34200 ft 508 kts 316°
2026-04-30 20:18 51.23171 0.18791 34198 ft 508 kts 316°
2026-04-30 20:19 51.28264 0.10957 34202 ft 508 kts 316°
2026-04-30 20:19 51.30791 0.07084 34067 ft 503 kts 317°
2026-04-30 20:19 51.33442 0.03469 33698 ft 496 kts 322°
2026-04-30 20:19 51.36255 0.00293 32906 ft 497 kts 329°
2026-04-30 20:20 51.39249 -0.02541 31899 ft 503 kts 330°
2026-04-30 20:20 51.42297 -0.05356 30874 ft 508 kts 330°
2026-04-30 20:20 51.45365 -0.08198 30034 ft 509 kts 330°
2026-04-30 20:20 51.48403 -0.11047 29358 ft 506 kts 329°
2026-04-30 20:21 51.51427 -0.13917 28813 ft 501 kts 329°
2026-04-30 20:21 51.54412 -0.16768 28235 ft 497 kts 329°
2026-04-30 20:21 51.57361 -0.19596 27620 ft 494 kts 329°
2026-04-30 20:21 51.60308 -0.22425 26987 ft 491 kts 329°
2026-04-30 20:22 51.63197 -0.25202 26367 ft 489 kts 329°
2026-04-30 20:22 51.66110 -0.28003 25747 ft 487 kts 329°
2026-04-30 20:22 51.69012 -0.30787 25158 ft 484 kts 329°
2026-04-30 20:22 51.71900 -0.33548 24576 ft 481 kts 329°
2026-04-30 20:23 51.74767 -0.36290 24022 ft 478 kts 329°
2026-04-30 20:23 51.77615 -0.39023 23460 ft 475 kts 329°
2026-04-30 20:23 51.80447 -0.41748 22930 ft 471 kts 329°
2026-04-30 20:23 51.83244 -0.44452 22455 ft 466 kts 329°
2026-04-30 20:24 51.86022 -0.47152 22240 ft 467 kts 329°
2026-04-30 20:24 51.88802 -0.49864 22206 ft 465 kts 329°
2026-04-30 20:24 51.91571 -0.52568 22206 ft 464 kts 329°
2026-04-30 20:24 51.94332 -0.55269 22214 ft 464 kts 329°
2026-04-30 20:25 51.99849 -0.60675 21961 ft 461 kts 329°
2026-04-30 20:25 52.02590 -0.63365 21469 ft 458 kts 328°
2026-04-30 20:26 52.07947 -0.68629 20403 ft 441 kts 328°
2026-04-30 20:26 52.13134 -0.73743 18604 ft 432 kts 328°
2026-04-30 20:26 52.15690 -0.76270 17729 ft 427 kts 328°
2026-04-30 20:27 52.20707 -0.81238 16006 ft 416 kts 328°
2026-04-30 20:27 52.25586 -0.86082 14610 ft 398 kts 328°
2026-04-30 20:28 52.30059 -0.90510 14306 ft 355 kts 328°
2026-04-30 20:28 52.34393 -0.94801 12695 ft 376 kts 328°
2026-04-30 20:29 52.38728 -0.99116 12454 ft 352 kts 328°
2026-04-30 20:30 52.44291 -1.05907 12038 ft 316 kts 315°
2026-04-30 20:30 52.49023 -1.13152 10806 ft 308 kts 316°
2026-04-30 20:31 52.53688 -1.20188 9688 ft 301 kts 316°
2026-04-30 20:32 52.58285 -1.27051 8544 ft 295 kts 316°
2026-04-30 20:32 52.61298 -1.31568 7764 ft 292 kts 316°
2026-04-30 20:33 52.62798 -1.33819 7362 ft 291 kts 316°
2026-04-30 20:33 52.65757 -1.38253 6845 ft 282 kts 316°
2026-04-30 20:33 52.67179 -1.40394 6678 ft 271 kts 316°
2026-04-30 20:34 52.69839 -1.44386 6027 ft 250 kts 316°
2026-04-30 20:34 52.72408 -1.48267 5000 ft 251 kts 316°
2026-04-30 20:35 52.73670 -1.50171 4666 ft 247 kts 316°
2026-04-30 20:35 52.74925 -1.52063 4377 ft 241 kts 316°
2026-04-30 20:35 52.77342 -1.55721 3719 ft 233 kts 316°
2026-04-30 20:36 52.78529 -1.57516 3307 ft 232 kts 317°
2026-04-30 20:36 52.79716 -1.59310 3004 ft 231 kts 320°
2026-04-30 20:36 52.82535 -1.59843 2972 ft 199 kts 42°
2026-04-30 20:37 52.83293 -1.58196 2975 ft 172 kts 85°
2026-04-30 20:37 52.83193 -1.56371 2844 ft 156 kts 112°
2026-04-30 20:37 52.82984 -1.54680 2680 ft 147 kts 98°
2026-04-30 20:37 52.82918 -1.53000 2482 ft 148 kts 97°
2026-04-30 20:38 52.82838 -1.51311 2282 ft 147 kts 96°
2026-04-30 20:38 52.82806 -1.49619 2076 ft 147 kts 92°
2026-04-30 20:38 52.82824 -1.47920 1898 ft 149 kts 90°
2026-04-30 20:39 52.82884 -1.44470 1498 ft 152 kts 88°
2026-04-30 20:39 52.82917 -1.42727 1295 ft 151 kts 88°
2026-04-30 20:39 52.82948 -1.40998 1088 ft 151 kts 88°
2026-04-30 20:40 52.83000 -1.37652 712 ft 138 kts 88°
2026-04-30 20:40 52.83034 -1.36064 505 ft 140 kts 88°
2026-04-30 20:40 52.83066 -1.34441 327 ft 143 kts 89°
2026-04-30 20:41 52.83116 -1.31921 304 ft 63 kts 88°
2026-04-30 20:41 52.83125 -1.31425 304 ft 24 kts 88°
2026-04-30 20:41 52.83063 -1.31320 300 ft 13 kts 173°
2026-04-30 20:41 52.82977 -1.31329 302 ft 12 kts 216°
2026-04-30 20:42 52.82957 -1.31456 302 ft 12 kts 268°
2026-04-30 20:42 52.82954 -1.31594 303 ft 12 kts 268°
2026-04-30 20:42 52.82946 -1.31868 303 ft 12 kts 270°
2026-04-30 20:43 52.82945 -1.32089 306 ft 25 kts 269°
2026-04-30 20:43 52.82941 -1.32370 306 ft 25 kts 267°
2026-04-30 20:43 52.82934 -1.32659 308 ft 25 kts 268°
2026-04-30 20:44 52.82921 -1.33227 312 ft 25 kts 268°
2026-04-30 20:44 52.82917 -1.33508 314 ft 25 kts 269°
2026-04-30 20:44 52.82910 -1.34076 315 ft 25 kts 269°
2026-04-30 20:45 52.82826 -1.34557 318 ft 15 kts 276°
2026-04-30 20:45 52.82827 -1.34703 318 ft 13 kts 269°
2026-04-30 20:45 52.82773 -1.34779 319 ft 13 kts 168°
2026-04-30 20:46 52.82744 -1.34769 319 ft 0 kts 179°